| time (UTC) | temp F | wind direction | speed knots | gust knots | rain 1hr in | rain 24hr in | rain mn in | humidity % | barometer mb |
| 20260505095036 | 78 | 77 | 6.1 | 10.4 | 0.00 | 0.00 | 0.00 | 83 | 1016.1 |
| 20260505094546 | 78 | 62 | 5.2 | 11.3 | 0.00 | 0.00 | 0.00 | 84 | 1016.1 |
| 20260505094036 | 78 | 77 | 5.2 | 11.3 | 0.00 | 0.00 | 0.00 | 84 | 1015.9 |
| 20260505093536 | 77 | 51 | 4.3 | 11.3 | 0.00 | 0.00 | 0.00 | 84 | 1015.9 |
| 20260505093045 | 77 | 52 | 4.3 | 8.7 | 0.00 | 0.00 | 0.00 | 85 | 1016.0 |
| 20260505092539 | 77 | 63 | 4.3 | 11.3 | 0.00 | 0.00 | 0.00 | 85 | 1015.9 |
| 20260505092036 | 76 | 67 | 4.3 | 11.3 | 0.00 | 0.00 | 0.00 | 85 | 1015.9 |
| 20260505091557 | 76 | 52 | 3.5 | 7.8 | 0.00 | 0.00 | 0.00 | 84 | 1015.9 |
| 20260505091035 | 77 | 59 | 3.5 | 7.0 | 0.00 | 0.00 | 0.00 | 84 | 1015.9 |
| 20260505090533 | 77 | 67 | 3.5 | 8.7 | 0.00 | 0.00 | 0.00 | 84 | 1015.8 |
| 20260505090049 | 77 | 42 | 5.2 | 8.7 | 0.00 | 0.00 | 0.00 | 84 | 1015.8 |
| 20260505085536 | 77 | 61 | 4.3 | 9.6 | 0.00 | 0.00 | 0.00 | 84 | 1015.8 |
| 20260505085036 | 76 | 60 | 4.3 | 9.6 | 0.00 | 0.00 | 0.00 | 85 | 1015.7 |
| 20260505084548 | 76 | 61 | 4.3 | 8.7 | 0.00 | 0.00 | 0.00 | 84 | 1015.8 |
| 20260505084036 | 76 | 69 | 3.5 | 8.7 | 0.00 | 0.00 | 0.00 | 84 | 1015.7 |
| 20260505083537 | 76 | 45 | 4.3 | 8.7 | 0.00 | 0.00 | 0.00 | 84 | 1015.7 |
| 20260505083056 | 76 | 50 | 4.3 | 9.6 | 0.00 | 0.00 | 0.00 | 84 | 1015.7 |
| 20260505082534 | 76 | 43 | 4.3 | 9.6 | 0.00 | 0.00 | 0.00 | 84 | 1015.7 |
| 20260505082034 | 77 | 61 | 4.3 | 7.8 | 0.00 | 0.00 | 0.00 | 83 | 1015.7 |
| 20260505081551 | 77 | 37 | 4.3 | 7.8 | 0.00 | 0.00 | 0.00 | 83 | 1015.7 |
| 20260505081034 | 77 | 63 | 4.3 | 8.7 | 0.00 | 0.00 | 0.00 | 84 | 1015.8 |
| 20260505080534 | 77 | 54 | 5.2 | 8.7 | 0.00 | 0.00 | 0.00 | 83 | 1015.8 |
| 20260505080103 | 77 | 51 | 4.3 | 8.7 | 0.00 | 0.00 | 0.00 | 83 | 1015.9 |
| 20260505075534 | 77 | 35 | 5.2 | 8.7 | 0.00 | 0.00 | 0.00 | 83 | 1015.9 |
| 20260505075034 | 77 | 46 | 4.3 | 8.7 | 0.00 | 0.00 | 0.00 | 83 | 1015.8 |
| 20260505074551 | 77 | 41 | 4.3 | 8.7 | 0.00 | 0.00 | 0.00 | 83 | 1015.9 |
| 20260505074034 | 77 | 40 | 4.3 | 8.7 | 0.00 | 0.00 | 0.00 | 83 | 1015.8 |
| 20260505073537 | 77 | 16 | 5.2 | 9.6 | 0.00 | 0.00 | 0.00 | 83 | 1015.8 |
| 20260505073046 | 77 | 84 | 4.3 | 9.6 | 0.00 | 0.00 | 0.00 | 83 | 1015.8 |
| 20260505072534 | 78 | 51 | 4.3 | 8.7 | 0.00 | 0.00 | 0.00 | 82 | 1015.7 |
| 20260505072034 | 78 | 50 | 3.5 | 7.8 | 0.00 | 0.00 | 0.00 | 82 | 1015.8 |
| 20260505071546 | 78 | 66 | 3.5 | 7.8 | 0.00 | 0.00 | 0.00 | 82 | 1015.8 |
| 20260505071034 | 78 | 56 | 3.5 | 7.8 | 0.00 | 0.00 | 0.00 | 81 | 1015.8 |
| 20260505070534 | 78 | 39 | 3.5 | 7.0 | 0.00 | 0.00 | 0.00 | 81 | 1015.8 |
| 20260505070052 | 78 | 77 | 2.6 | 7.8 | 0.00 | 0.00 | 0.00 | 81 | 1015.8 |
| 20260505065535 | 79 | 53 | 2.6 | 7.8 | 0.00 | 0.00 | 0.00 | 81 | 1015.7 |
| 20260505065034 | 79 | 80 | 2.6 | 6.1 | 0.00 | 0.00 | 0.00 | 80 | 1015.8 |
| 20260505064544 | 79 | 52 | 2.6 | 7.0 | 0.00 | 0.00 | 0.00 | 80 | 1015.8 |
| 20260505064034 | 79 | 75 | 2.6 | 7.0 | 0.00 | 0.00 | 0.00 | 80 | 1015.8 |
| 20260505063534 | 79 | 86 | 2.6 | 7.0 | 0.00 | 0.00 | 0.00 | 80 | 1015.8 |
| 20260505063108 | 79 | 78 | 2.6 | 7.0 | 0.00 | 0.00 | 0.00 | 80 | 1015.9 |
| 20260505062539 | 79 | 92 | 2.6 | 7.0 | 0.00 | 0.00 | 0.00 | 80 | 1015.9 |
| 20260505062033 | 79 | 92 | 2.6 | 7.0 | 0.00 | 0.00 | 0.00 | 80 | 1016.0 |
| 20260505061548 | 79 | 84 | 2.6 | 7.0 | 0.00 | 0.00 | 0.00 | 79 | 1016.0 |
| 20260505061037 | 80 | 92 | 2.6 | 7.8 | 0.00 | 0.00 | 0.00 | 79 | 1016.1 |
| 20260505060534 | 80 | 80 | 1.7 | 7.8 | 0.00 | 0.00 | 0.00 | 79 | 1016.1 |
| 20260505060054 | 80 | 64 | 3.5 | 7.8 | 0.00 | 0.00 | 0.00 | 79 | 1016.1 |
| 20260505055534 | 80 | 98 | 2.6 | 8.7 | 0.00 | 0.00 | 0.00 | 79 | 1016.1 |
| 20260505055034 | 80 | 132 | 3.5 | 8.7 | 0.00 | 0.00 | 0.00 | 78 | 1016.1 |
| 20260505054606 | 80 | 76 | 3.5 | 7.8 | 0.00 | 0.00 | 0.00 | 78 | 1016.1 |
| 20260505054037 | 80 | 94 | 2.6 | 7.8 | 0.00 | 0.00 | 0.00 | 78 | 1016.3 |
| 20260505053535 | 80 | 98 | 2.6 | 7.8 | 0.00 | 0.00 | 0.00 | 78 | 1016.4 |
| 20260505053058 | 80 | 91 | 3.5 | 7.8 | 0.00 | 0.00 | 0.00 | 79 | 1016.5 |
| 20260505052536 | 80 | 82 | 4.3 | 7.8 | 0.00 | 0.00 | 0.00 | 78 | 1016.5 |
| 20260505052036 | 79 | 83 | 4.3 | 7.8 | 0.00 | 0.00 | 0.00 | 79 | 1016.5 |
| 20260505051550 | 79 | 69 | 2.6 | 7.8 | 0.00 | 0.00 | 0.00 | 79 | 1016.6 |
| 20260505051036 | 79 | 76 | 2.6 | 7.0 | 0.00 | 0.00 | 0.00 | 79 | 1016.7 |
| 20260505050536 | 80 | 81 | 2.6 | 7.0 | 0.00 | 0.00 | 0.00 | 78 | 1016.8 |
| 20260505041557 | 79 | 78 | 2.6 | 7.8 | 0.00 | 0.00 | 0.00 | 81 | 1017.3 |
| 20260505041036 | 79 | 59 | 3.5 | 7.8 | 0.00 | 0.00 | 0.00 | 80 | 1017.3 |
| 20260505040536 | 79 | 51 | 3.5 | 7.8 | 0.00 | 0.00 | 0.00 | 81 | 1017.4 |
| 20260505040053 | 79 | 54 | 3.5 | 7.0 | 0.00 | 0.00 | 0.00 | 81 | 1017.4 |
| 20260505035535 | 79 | 37 | 3.5 | 7.8 | 0.00 | 0.00 | 0.00 | 82 | 1017.5 |
| 20260505035035 | 79 | 51 | 3.5 | 7.8 | 0.00 | 0.00 | 0.00 | 82 | 1017.6 |
| 20260505034546 | 79 | 44 | 3.5 | 6.1 | 0.00 | 0.00 | 0.00 | 82 | 1017.7 |
| 20260505034040 | 79 | 49 | 2.6 | 5.2 | 0.00 | 0.00 | 0.00 | 82 | 1017.7 |
| 20260505033536 | 80 | 41 | 2.6 | 5.2 | 0.00 | 0.00 | 0.00 | 82 | 1017.6 |
| 20260505033048 | 80 | 73 | 2.6 | 6.1 | 0.00 | 0.00 | 0.00 | 82 | 1017.6 |
| 20260505032537 | 80 | 74 | 1.7 | 6.1 | 0.00 | 0.00 | 0.00 | 82 | 1017.6 |
| 20260505032036 | 80 | 51 | 3.5 | 7.0 | 0.00 | 0.00 | 0.00 | 82 | 1017.7 |
| 20260505031554 | 79 | 50 | 3.5 | 7.0 | 0.00 | 0.00 | 0.00 | 82 | 1017.7 |
| 20260505031036 | 79 | 53 | 3.5 | 5.2 | 0.00 | 0.00 | 0.00 | 82 | 1017.8 |
| 20260505030535 | 79 | 53 | 2.6 | 5.2 | 0.00 | 0.00 | 0.00 | 82 | 1017.9 |
| 20260505030046 | 79 | 52 | 1.7 | 7.0 | 0.00 | 0.00 | 0.00 | 82 | 1017.8 |
| 20260505025536 | 80 | 34 | 2.6 | 7.8 | 0.00 | 0.00 | 0.00 | 82 | 1017.8 |
| 20260505025039 | 80 | 54 | 4.3 | 7.8 | 0.00 | 0.00 | 0.00 | 82 | 1017.9 |
| 20260505024555 | 80 | 40 | 3.5 | 7.0 | 0.00 | 0.00 | 0.00 | 82 | 1017.7 |
| 20260505024036 | 80 | 45 | 3.5 | 7.0 | 0.00 | 0.00 | 0.00 | 81 | 1017.7 |
| 20260505023537 | 80 | 32 | 3.5 | 7.0 | 0.00 | 0.00 | 0.00 | 81 | 1017.7 |
| 20260505023053 | 80 | 38 | 1.7 | 5.2 | 0.00 | 0.00 | 0.00 | 81 | 1017.7 |
| 20260505022537 | 80 | 64 | 3.5 | 7.0 | 0.00 | 0.00 | 0.00 | 81 | 1017.6 |
| 20260505022036 | 80 | 51 | 4.3 | 7.0 | 0.00 | 0.00 | 0.00 | 81 | 1017.6 |
| 20260505021548 | 80 | 51 | 2.6 | 7.0 | 0.00 | 0.00 | 0.00 | 81 | 1017.5 |
| 20260505021035 | 80 | 42 | 3.5 | 7.0 | 0.00 | 0.00 | 0.00 | 81 | 1017.5 |
| 20260505020536 | 80 | 38 | 2.6 | 6.1 | 0.00 | 0.00 | 0.00 | 81 | 1017.4 |
| 20260505020046 | 80 | 60 | 3.5 | 7.0 | 0.00 | 0.00 | 0.00 | 81 | 1017.4 |
| 20260505015538 | 81 | 57 | 3.5 | 7.0 | 0.00 | 0.00 | 0.00 | 81 | 1017.4 |
| 20260505015039 | 81 | 54 | 3.5 | 6.1 | 0.00 | 0.00 | 0.00 | 80 | 1017.4 |
| 20260505014606 | 81 | 53 | 4.3 | 6.1 | 0.00 | 0.00 | 0.00 | 80 | 1017.3 |
| 20260505014036 | 81 | 46 | 3.5 | 5.2 | 0.00 | 0.00 | 0.00 | 81 | 1017.2 |
| 20260505013536 | 81 | 63 | 3.5 | 5.2 | 0.00 | 0.00 | 0.00 | 80 | 1017.1 |
| 20260505013046 | 81 | 57 | 2.6 | 5.2 | 0.00 | 0.00 | 0.00 | 81 | 1017.1 |
| 20260505012536 | 81 | 58 | 2.6 | 4.3 | 0.00 | 0.00 | 0.00 | 80 | 1017.0 |
| 20260505012036 | 81 | 0 | 1.7 | 4.3 | 0.00 | 0.00 | 0.00 | 80 | 1017.1 |
| 20260505011601 | 81 | 49 | 2.6 | 5.2 | 0.00 | 0.00 | 0.00 | 80 | 1017.1 |
| 20260505011037 | 82 | 65 | 1.7 | 5.2 | 0.00 | 0.00 | 0.00 | 80 | 1016.9 |
| 20260505010536 | 82 | 56 | 2.6 | 5.2 | 0.00 | 0.00 | 0.00 | 79 | 1016.9 |
| 20260505010043 | 82 | 94 | 2.6 | 5.2 | 0.00 | 0.00 | 0.00 | 79 | 1016.8 |
| 20260505005537 | 82 | 80 | 2.6 | 5.2 | 0.00 | 0.00 | 0.00 | 79 | 1016.7 |
| 20260505005036 | 82 | 100 | 1.7 | 6.1 | 0.00 | 0.00 | 0.00 | 79 | 1016.6 |
| 20260505004548 | 82 | 82 | 2.6 | 6.1 | 0.00 | 0.00 | 0.00 | 79 | 1016.5 |
| 20260505004036 | 82 | 92 | 2.6 | 6.1 | 0.00 | 0.00 | 0.00 | 79 | 1016.5 |
| 20260505003539 | 82 | 65 | 2.6 | 6.1 | 0.00 | 0.00 | 0.00 | 78 | 1016.4 |
| 20260505003048 | 82 | 77 | 2.6 | 6.1 | 0.00 | 0.00 | 0.00 | 78 | 1016.5 |
| 20260505002535 | 83 | 56 | 2.6 | 4.3 | 0.00 | 0.00 | 0.00 | 78 | 1016.5 |
| 20260505002036 | 83 | 82 | 1.7 | 4.3 | 0.00 | 0.00 | 0.00 | 78 | 1016.4 |
| 20260505001547 | 83 | 76 | 1.7 | 3.5 | 0.00 | 0.00 | 0.00 | 78 | 1016.4 |
| 20260505001037 | 83 | 79 | 1.7 | 5.2 | 0.00 | 0.00 | 0.00 | 77 | 1016.4 |
| 20260505000536 | 83 | 83 | 1.7 | 7.0 | 0.00 | 0.00 | 0.00 | 77 | 1016.3 |
| 20260505000057 | 83 | 76 | 2.6 | 7.0 | 0.00 | 0.00 | 0.00 | 77 | 1016.3 |
| 20260504235536 | 84 | 98 | 2.6 | 8.7 | 0.00 | 0.00 | 0.00 | 77 | 1016.2 |
| 20260504235036 | 84 | 135 | 3.5 | 8.7 | 0.00 | 0.00 | 0.00 | 76 | 1016.2 |
| 20260504234549 | 84 | 116 | 2.6 | 7.8 | 0.00 | 0.00 | 0.00 | 76 | 1016.2 |
| 20260504234039 | 84 | 77 | 3.5 | 7.8 | 0.00 | 0.00 | 0.00 | 76 | 1016.2 |
| 20260504233536 | 84 | 61 | 1.7 | 8.7 | 0.00 | 0.00 | 0.00 | 75 | 1016.2 |
| 20260504233105 | 84 | 101 | 3.5 | 8.7 | 0.00 | 0.00 | 0.00 | 75 | 1016.2 |
| 20260504232536 | 84 | 119 | 4.3 | 8.7 | 0.00 | 0.00 | 0.00 | 75 | 1016.2 |
| 20260504232035 | 84 | 134 | 4.3 | 8.7 | 0.00 | 0.00 | 0.00 | 75 | 1016.1 |
| 20260504231548 | 85 | 88 | 3.5 | 7.0 | 0.00 | 0.00 | 0.00 | 74 | 1016.1 |
| 20260504231035 | 84 | 94 | 1.7 | 7.0 | 0.00 | 0.00 | 0.00 | 74 | 1016.1 |
| 20260504230534 | 85 | 144 | 3.5 | 7.0 | 0.00 | 0.00 | 0.00 | 73 | 1016.1 |
| 20260504230048 | 85 | 103 | 2.6 | 7.8 | 0.00 | 0.00 | 0.00 | 72 | 1016.1 |
| 20260504225535 | 85 | 117 | 3.5 | 7.8 | 0.00 | 0.00 | 0.00 | 72 | 1016.0 |
| 20260504225034 | 85 | 89 | 3.5 | 8.7 | 0.00 | 0.00 | 0.00 | 73 | 1015.9 |
| 20260504224558 | 86 | 142 | 4.3 | 8.7 | 0.00 | 0.00 | 0.00 | 73 | 1015.8 |
| 20260504224036 | 86 | 119 | 4.3 | 7.8 | 0.00 | 0.00 | 0.00 | 73 | 1015.8 |
| 20260504223534 | 86 | 153 | 3.5 | 7.8 | 0.00 | 0.00 | 0.00 | 73 | 1015.7 |
| 20260504223100 | 86 | 94 | 3.5 | 8.7 | 0.00 | 0.00 | 0.00 | 72 | 1015.7 |
| 20260504222533 | 87 | 138 | 5.2 | 8.7 | 0.00 | 0.00 | 0.00 | 71 | 1015.6 |
| 20260504222034 | 87 | 122 | 4.3 | 9.6 | 0.00 | 0.00 | 0.00 | 71 | 1015.6 |
| 20260504221550 | 87 | 152 | 4.3 | 9.6 | 0.00 | 0.00 | 0.00 | 71 | 1015.5 |
| 20260504221037 | 88 | 161 | 5.2 | 11.3 | 0.00 | 0.00 | 0.00 | 71 | 1015.5 |
| 20260504220535 | 88 | 132 | 5.2 | 11.3 | 0.00 | 0.00 | 0.00 | 70 | 1015.4 |
| 20260504220052 | 89 | 105 | 4.3 | 10.4 | 0.00 | 0.00 | 0.00 | 70 | 1015.4 |
| 20260504215535 | 89 | 145 | 5.2 | 10.4 | 0.00 | 0.00 | 0.00 | 70 | 1015.4 |
| 20260504215038 | 89 | 141 | 3.5 | 10.4 | 0.00 | 0.00 | 0.00 | 69 | 1015.2 |
| 20260504214544 | 89 | 142 | 6.1 | 10.4 | 0.00 | 0.00 | 0.00 | 69 | 1015.2 |
| 20260504214034 | 89 | 135 | 3.5 | 12.2 | 0.00 | 0.00 | 0.00 | 70 | 1015.1 |
| 20260504213535 | 89 | 112 | 7.0 | 12.2 | 0.00 | 0.00 | 0.00 | 69 | 1015.1 |
| 20260504213057 | 89 | 142 | 5.2 | 10.4 | 0.00 | 0.00 | 0.00 | 69 | 1015.2 |
| 20260504212535 | 89 | 116 | 5.2 | 12.2 | 0.00 | 0.00 | 0.00 | 69 | 1015.1 |
| 20260504212034 | 90 | 161 | 7.0 | 12.2 | 0.00 | 0.00 | 0.00 | 68 | 1015.2 |
| 20260504211545 | 90 | 113 | 7.8 | 10.4 | 0.00 | 0.00 | 0.00 | 68 | 1015.0 |
| 20260504211035 | 90 | 142 | 3.5 | 11.3 | 0.00 | 0.00 | 0.00 | 68 | 1015.1 |
| 20260504210537 | 90 | 109 | 5.2 | 11.3 | 0.00 | 0.00 | 0.00 | 68 | 1015.1 |
| 20260504210047 | 90 | 140 | 5.2 | 11.3 | 0.00 | 0.00 | 0.00 | 68 | 1015.1 |
| 20260504205535 | 90 | 148 | 6.1 | 13.0 | 0.00 | 0.00 | 0.00 | 68 | 1015.0 |
| 20260504205038 | 90 | 161 | 7.8 | 13.0 | 0.00 | 0.00 | 0.00 | 68 | 1015.0 |
| 20260504204549 | 90 | 160 | 6.1 | 13.0 | 0.00 | 0.00 | 0.00 | 68 | 1015.0 |
| 20260504204035 | 90 | 130 | 7.8 | 13.0 | 0.00 | 0.00 | 0.00 | 68 | 1015.0 |
| 20260504203534 | 90 | 133 | 6.1 | 13.0 | 0.00 | 0.00 | 0.00 | 69 | 1015.1 |
| 20260504203106 | 89 | 123 | 7.0 | 13.0 | 0.00 | 0.00 | 0.00 | 68 | 1015.1 |
| 20260504202535 | 89 | 131 | 7.0 | 13.0 | 0.00 | 0.00 | 0.00 | 68 | 1015.2 |
| 20260504202041 | 89 | 98 | 7.0 | 13.0 | 0.00 | 0.00 | 0.00 | 68 | 1015.1 |
| 20260504201559 | 89 | 120 | 7.0 | 14.8 | 0.00 | 0.00 | 0.00 | 69 | 1015.2 |
| 20260504201034 | 89 | 123 | 7.0 | 14.8 | 0.00 | 0.00 | 0.00 | 69 | 1015.2 |
| 20260504200535 | 89 | 129 | 6.1 | 14.8 | 0.00 | 0.00 | 0.00 | 69 | 1015.3 |
| 20260504200111 | 89 | 119 | 8.7 | 13.0 | 0.00 | 0.00 | 0.00 | 68 | 1015.3 |
| 20260504195534 | 90 | 126 | 8.7 | 13.9 | 0.00 | 0.00 | 0.00 | 68 | 1015.3 |
| 20260504195034 | 90 | 113 | 7.0 | 15.6 | 0.00 | 0.00 | 0.00 | 68 | 1015.4 |
| 20260504194546 | 89 | 119 | 7.8 | 15.6 | 0.00 | 0.00 | 0.00 | 68 | 1015.3 |
| 20260504194035 | 90 | 133 | 9.6 | 15.6 | 0.00 | 0.00 | 0.00 | 68 | 1015.4 |
| 20260504193536 | 90 | 119 | 6.1 | 13.9 | 0.00 | 0.00 | 0.00 | 69 | 1015.4 |
| 20260504193044 | 89 | 218 | 10.4 | 15.6 | 0.00 | 0.00 | 0.00 | 68 | 1015.4 |
| 20260504192534 | 90 | 132 | 8.7 | 15.6 | 0.00 | 0.00 | 0.00 | 68 | 1015.5 |
| 20260504192035 | 90 | 128 | 7.8 | 13.9 | 0.00 | 0.00 | 0.00 | 68 | 1015.6 |
| 20260504191556 | 90 | 137 | 7.0 | 14.8 | 0.00 | 0.00 | 0.00 | 69 | 1015.7 |
| 20260504191035 | 90 | 113 | 7.8 | 14.8 | 0.00 | 0.00 | 0.00 | 69 | 1015.6 |
| 20260504190534 | 90 | 140 | 7.8 | 13.0 | 0.00 | 0.00 | 0.00 | 68 | 1015.7 |
| 20260504190047 | 90 | 107 | 6.1 | 14.8 | 0.00 | 0.00 | 0.00 | 69 | 1015.7 |
| 20260504185533 | 89 | 130 | 7.0 | 18.2 | 0.00 | 0.00 | 0.00 | 69 | 1015.7 |
| 20260504185036 | 89 | 140 | 7.8 | 18.2 | 0.00 | 0.00 | 0.00 | 69 | 1015.8 |
| 20260504184550 | 89 | 101 | 8.7 | 17.4 | 0.00 | 0.00 | 0.00 | 70 | 1015.8 |
| 20260504184035 | 89 | 103 | 7.0 | 17.4 | 0.00 | 0.00 | 0.00 | 70 | 1015.8 |
| 20260504183535 | 89 | 123 | 9.6 | 17.4 | 0.00 | 0.00 | 0.00 | 69 | 1015.9 |
| 20260504183048 | 89 | 138 | 9.6 | 16.5 | 0.00 | 0.00 | 0.00 | 69 | 1015.8 |
| 20260504182536 | 89 | 138 | 8.7 | 15.6 | 0.00 | 0.00 | 0.00 | 68 | 1016.0 |
| 20260504182034 | 89 | 146 | 10.4 | 17.4 | 0.00 | 0.00 | 0.00 | 69 | 1015.9 |
| 20260504181548 | 89 | 153 | 9.6 | 17.4 | 0.00 | 0.00 | 0.00 | 69 | 1016.0 |
| 20260504181035 | 89 | 153 | 9.6 | 17.4 | 0.00 | 0.00 | 0.00 | 69 | 1016.1 |
| 20260504180533 | 89 | 129 | 9.6 | 17.4 | 0.00 | 0.00 | 0.00 | 69 | 1016.1 |
| 20260504180045 | 89 | 121 | 9.6 | 16.5 | 0.00 | 0.00 | 0.00 | 69 | 1016.2 |
| 20260504175534 | 89 | 124 | 9.6 | 18.2 | 0.00 | 0.00 | 0.00 | 69 | 1016.2 |
| 20260504175034 | 89 | 119 | 9.6 | 18.2 | 0.00 | 0.00 | 0.00 | 67 | 1016.2 |
| 20260504174549 | 89 | 126 | 8.7 | 17.4 | 0.00 | 0.00 | 0.00 | 67 | 1016.3 |
| 20260504174034 | 89 | 155 | 7.8 | 17.4 | 0.00 | 0.00 | 0.00 | 67 | 1016.2 |
| 20260504173533 | 89 | 144 | 8.7 | 17.4 | 0.00 | 0.00 | 0.00 | 68 | 1016.4 |
| 20260504173047 | 89 | 140 | 7.8 | 16.5 | 0.00 | 0.00 | 0.00 | 67 | 1016.4 |
| 20260504172535 | 89 | 167 | 8.7 | 16.5 | 0.00 | 0.00 | 0.00 | 67 | 1016.5 |
| 20260504172035 | 89 | 113 | 7.8 | 16.5 | 0.00 | 0.00 | 0.00 | 65 | 1016.6 |
| 20260504171553 | 89 | 110 | 7.8 | 16.5 | 0.00 | 0.00 | 0.00 | 66 | 1016.7 |
| 20260504171034 | 89 | 134 | 8.7 | 18.2 | 0.00 | 0.00 | 0.00 | 63 | 1016.8 |
| 20260504170534 | 89 | 124 | 7.8 | 18.2 | 0.00 | 0.00 | 0.00 | 63 | 1016.8 |
| 20260504151038 | 87 | 95 | 10.4 | 18.2 | 0.00 | 0.00 | 0.00 | 68 | 1017.2 |
| 20260504150534 | 87 | 140 | 8.7 | 17.4 | 0.00 | 0.00 | 0.00 | 70 | 1017.1 |
| 20260504141035 | 86 | 67 | 9.6 | 17.4 | 0.00 | 0.00 | 0.00 | 70 | 1017.5 |
| 20260504140535 | 86 | 115 | 9.6 | 16.5 | 0.00 | 0.00 | 0.00 | 72 | 1017.6 |
| 20260504130536 | 84 | 80 | 7.8 | 16.5 | 0.00 | 0.00 | 0.00 | 74 | 1017.3 |
| 20260504110537 | 77 | 51 | 2.6 | 7.0 | 0.00 | 0.00 | 0.00 | 82 | 1016.9 |
| 20260504100534 | 76 | 25 | 3.5 | 7.8 | 0.00 | 0.00 | 0.00 | 83 | 1016.6 |